TimeCST,TemperatureF,Dew PointF,Humidity,Sea Level PressureIn,VisibilityMPH,Wind Direction,Wind SpeedMPH,Gust SpeedMPH,PrecipitationIn,Events,Conditions,WindDirDegrees,DateUTC
12:15 AM,23.0,21.2,93,29.93,10.0,SW,5.8,-,N/A,,Clear,220,2013-01-08 06:15:00
12:35 AM,21.2,19.4,93,29.93,7.0,SW,5.8,-,N/A,,Mostly Cloudy,230,2013-01-08 06:35:00
12:55 AM,21.2,19.4,93,29.94,7.0,SW,4.6,-,N/A,,Overcast,220,2013-01-08 06:55:00
1:15 AM,21.2,19.4,93,29.95,5.0,Calm,Calm,-,N/A,,Scattered Clouds,0,2013-01-08 07:15:00
1:35 AM,21.2,19.4,93,29.95,2.0,SW,3.5,-,N/A,,Clear,220,2013-01-08 07:35:00
1:55 AM,21.2,19.4,93,29.95,1.8,Calm,Calm,-,N/A,,Clear,0,2013-01-08 07:55:00
2:15 AM,19.4,17.6,93,29.96,0.2,Calm,Calm,-,N/A,Fog,Light Freezing Fog,0,2013-01-08 08:15:00
2:35 AM,19.4,17.6,93,29.96,0.2,Calm,Calm,-,N/A,Fog,Light Freezing Fog,0,2013-01-08 08:35:00
2:55 AM,19.4,17.6,93,29.95,0.5,Calm,Calm,-,N/A,Fog,Light Freezing Fog,0,2013-01-08 08:55:00
3:15 AM,15.8,12.2,86,29.95,0.2,SSW,3.5,-,N/A,Fog,Light Freezing Fog,200,2013-01-08 09:15:00
3:35 AM,17.6,15.8,93,29.96,4.0,Calm,Calm,-,N/A,,Scattered Clouds,0,2013-01-08 09:35:00
3:55 AM,19.4,17.6,93,29.96,1.8,Calm,Calm,-,N/A,,Mist,0,2013-01-08 09:55:00
4:15 AM,17.6,15.8,93,29.96,2.5,Calm,Calm,-,N/A,,Overcast,0,2013-01-08 10:15:00
4:35 AM,17.6,15.8,93,29.95,1.2,Calm,Calm,-,N/A,,Mostly Cloudy,0,2013-01-08 10:35:00
4:55 AM,15.8,14.0,93,29.95,5.0,Calm,Calm,-,N/A,,Scattered Clouds,0,2013-01-08 10:55:00
5:15 AM,17.6,15.8,93,29.95,3.0,Calm,Calm,-,N/A,,Clear,0,2013-01-08 11:15:00
6:15 AM,12.2,8.6,85,29.96,1.5,Calm,Calm,-,N/A,,Overcast,0,2013-01-08 12:15:00
6:35 AM,14.0,12.2,93,29.95,0.2,Calm,Calm,-,N/A,Fog,Light Freezing Fog,0,2013-01-08 12:35:00
8:15 AM,15.8,14.0,93,29.98,0.2,Calm,Calm,-,N/A,Fog,Light Freezing Fog,0,2013-01-08 14:15:00
8:55 AM,15.8,14.0,93,29.99,0.2,Calm,Calm,-,N/A,Fog,Light Freezing Fog,0,2013-01-08 14:55:00
9:55 AM,17.6,15.8,93,29.98,0.2,Calm,Calm,-,N/A,Fog,Light Freezing Fog,0,2013-01-08 15:55:00
10:15 AM,19.4,17.6,93,29.98,1.5,Calm,Calm,-,N/A,,Mostly Cloudy,0,2013-01-08 16:15:00
10:35 AM,21.2,19.4,93,29.97,4.0,Calm,Calm,-,N/A,,Clear,0,2013-01-08 16:35:00
10:55 AM,24.8,21.2,86,29.96,7.0,Calm,Calm,-,N/A,,Clear,0,2013-01-08 16:55:00
11:15 AM,26.6,24.8,93,29.95,7.0,SE,4.6,-,N/A,,Clear,130,2013-01-08 17:15:00
11:35 AM,26.6,24.8,93,29.94,7.0,SE,4.6,-,N/A,,Clear,130,2013-01-08 17:35:00
11:55 AM,26.6,24.8,93,29.92,7.0,East,6.9,-,N/A,,Clear,100,2013-01-08 17:55:00
12:15 PM,28.4,26.6,93,29.92,10.0,ESE,4.6,-,N/A,,Clear,120,2013-01-08 18:15:00
12:35 PM,28.4,26.6,93,29.91,10.0,SE,9.2,-,N/A,,Clear,130,2013-01-08 18:35:00
12:55 PM,28.4,26.6,93,29.90,10.0,SE,9.2,-,N/A,,Clear,140,2013-01-08 18:55:00
1:15 PM,30.2,28.4,93,29.89,10.0,SE,9.2,18.4,N/A,,Clear,130,2013-01-08 19:15:00
1:55 PM,30.2,28.4,93,29.88,7.0,SE,9.2,-,N/A,,Clear,130,2013-01-08 19:55:00
2:15 PM,33.8,28.4,81,29.86,10.0,SE,12.7,-,N/A,,Clear,130,2013-01-08 20:15:00
2:35 PM,33.8,28.4,81,29.85,10.0,ESE,11.5,17.3,N/A,,Clear,120,2013-01-08 20:35:00
3:15 PM,35.6,26.6,70,29.84,10.0,SE,10.4,-,N/A,,Clear,130,2013-01-08 21:15:00
3:35 PM,35.6,26.6,70,29.84,10.0,SE,11.5,18.4,N/A,,Clear,140,2013-01-08 21:35:00
3:55 PM,35.6,26.6,70,29.83,10.0,SE,11.5,-,N/A,,Clear,140,2013-01-08 21:55:00
4:15 PM,33.8,26.6,75,29.81,10.0,SE,9.2,-,N/A,,Clear,130,2013-01-08 22:15:00
4:35 PM,33.8,26.6,75,29.80,10.0,SE,10.4,-,N/A,,Clear,140,2013-01-08 22:35:00
4:55 PM,33.8,26.6,75,29.80,10.0,SE,8.1,-,N/A,,Clear,140,2013-01-08 22:55:00
5:15 PM,33.8,26.6,75,29.81,10.0,SSE,9.2,16.1,N/A,,Clear,150,2013-01-08 23:15:00
5:35 PM,33.8,26.6,75,29.81,10.0,SSE,6.9,-,N/A,,Clear,150,2013-01-08 23:35:00
5:55 PM,32.0,26.6,80,29.80,10.0,SSE,9.2,-,N/A,,Clear,150,2013-01-08 23:55:00
6:15 PM,32.0,26.6,80,29.80,10.0,SSE,9.2,-,N/A,,Clear,150,2013-01-09 00:15:00
6:35 PM,30.2,26.6,86,29.79,10.0,SSE,9.2,-,N/A,,Clear,160,2013-01-09 00:35:00
6:55 PM,30.2,26.6,86,29.78,10.0,SSE,12.7,17.3,N/A,,Clear,150,2013-01-09 00:55:00
7:15 PM,30.2,24.8,80,29.78,10.0,SSE,10.4,-,N/A,,Clear,160,2013-01-09 01:15:00
7:35 PM,30.2,24.8,80,29.78,10.0,South,8.1,-,N/A,,Clear,170,2013-01-09 01:35:00
7:55 PM,30.2,26.6,86,-9999,10.0,South,6.9,-,N/A,,Mostly Cloudy,170,2013-01-09 01:55:00
8:15 PM,32.0,26.6,80,-9999,10.0,South,6.9,-,N/A,,Overcast,180,2013-01-09 02:15:00
8:35 PM,33.8,28.4,81,29.76,10.0,South,10.4,-,N/A,,Overcast,190,2013-01-09 02:35:00
8:55 PM,33.8,28.4,81,29.76,10.0,South,12.7,-,N/A,,Overcast,190,2013-01-09 02:55:00
9:15 PM,33.8,28.4,81,29.76,10.0,South,13.8,-,N/A,,Overcast,190,2013-01-09 03:15:00
9:35 PM,33.8,28.4,81,29.76,10.0,SSW,15.0,20.7,N/A,,Overcast,200,2013-01-09 03:35:00
9:55 PM,33.8,28.4,81,29.75,10.0,SSW,16.1,19.6,N/A,,Overcast,200,2013-01-09 03:55:00
10:15 PM,33.8,30.2,87,29.76,10.0,SSW,16.1,20.7,N/A,,Overcast,210,2013-01-09 04:15:00
10:35 PM,33.8,30.2,87,29.76,10.0,SSW,15.0,19.6,N/A,,Overcast,210,2013-01-09 04:35:00
11:15 PM,35.6,30.2,81,29.76,10.0,SW,12.7,23.0,N/A,,Overcast,230,2013-01-09 05:15:00
11:55 PM,35.6,30.2,81,29.77,10.0,WSW,15.0,20.7,N/A,,Overcast,250,2013-01-09 05:55:00